Regional Weather Roundup
Issued by NWS

Home | Current Version | Previous Version | Graphics & Text | Print | Product List | Glossary Off
Versions: 1 2 3 4 5 6 7 8 9 10 11 12 13 14 15 16 17 18 19 20 21 22 23 24 25 26 27 28 29 30 31 32 33 34 35 36 37 38 39 40 41 42 43 44 45 46 47 48 49 50

000
ASUS43 KMPX 300310
RWRMN
WEATHER ROUNDUP FOR MINNESOTA
NATIONAL WEATHER SERVICE TWIN CITIES/CHANHASSEN MN
1000 PM CDT SUN MAR 29 2015


NOTE: "FAIR" INDICATES FEW OR NO CLOUDS BELOW 12,000 FEET WITH NO
SIGNIFICANT WEATHER AND/OR OBSTRUCTIONS TO VISIBILITY. N/A MEANS
CURRENT SKY AND/OR WEATHER CONDITIONS ARE NOT AVAILABLE.

MNZ060>063-068>070-300400-
   Twin Cities Metro

CITY           SKY/WX    TMP DP  RH WIND       PRES   REMARKS
TWIN CITIES    CLEAR     45  27  49 W10       29.95R
ST PAUL        CLEAR     45  27  49 W9        29.95R
CRYSTAL        CLEAR     45  26  47 W9        29.94R
BLAINE         CLEAR     45  28  53 W6        29.93R
LAKEVILLE      CLEAR     43  28  56 W9        29.95S
EDEN PRAIRIE   CLEAR     42  27  55 W8        29.95R
SOUTH ST PAUL  CLEAR     45  26  48 W6        29.94R
LAKE ELMO      FAIR      39  28  65 W7        29.94R
$$
MNZ001>005-007-008-013>017-022>024-027-028-300400-
   Northwest Minnesota

CITY           SKY/WX    TMP DP  RH WIND       PRES   REMARKS
BEMIDJI        CLEAR     38  26  62 SW6       29.87S
HALLOCK        CLEAR     37  32  81 W7        29.88R
ROSEAU         CLEAR     41  27  56 W6        29.85R
WARROAD        CLEAR     39  27  60 W7        29.84R
THIEF RVR FALL CLEAR     37  28  70 W7        29.89R
CROOKSTON      CLEAR     36  27  69 W10       29.91R
FOSSTON        CLEAR     30  27  86 CALM      29.90R
DETROIT LAKES  PTCLDY    43  30  61 W8        29.93R
MOORHEAD       CLOUDY    46  30  53 W8        29.93F
PARK RAPIDS    CLEAR     33  26  75 W5        29.89S WCI  29
MAHNOMEN       FAIR      36  30  78 SW6       29.90S
$$
MNZ006-009>011-018-025>026-300400-
   North Central Minnesota

CITY           SKY/WX    TMP DP  RH WIND       PRES   REMARKS
BAUDETTE       CLEAR     37  26  64 W7        29.81S
FLAG ISLAND    CLEAR     41  25  52 W10       29.80S
INTL FALLS     CLEAR     36  25  64 W7        29.79S
WASKISH        FAIR      36  30  80 CALM      29.84S
BIG FORK       CLEAR     37  25  60 W5        29.83S
LONGVILLE      CLEAR     37  25  60 W5        29.88R
GRAND RAPIDS   CLEAR     39  25  56 W7        29.85S
CRANE LAKE     CLEAR     36  25  64 W5        29.79F
ORR            CLEAR     36  25  64 CALM      29.77F
COOK           CLEAR     34  25  69 CALM      29.80S
WALKER         FAIR      38  24  57 W5        29.88S
$$
MNZ012-019>021-037-300400-
   Northeast Minnesota

CITY           SKY/WX    TMP DP  RH WIND       PRES   REMARKS
DULUTH         PTCLDY    39  24  55 W9        29.82R
ELY            PTCLDY    36  27  69 W8        29.76F
HIBBING        CLEAR     34  23  64 W5        29.82R WCI  30
EVELETH        CLEAR     36  27  69 W8        29.82S
DULUTH HARBOR  CLEAR     43  27  52 CALM      29.85R
TWO HARBORS    CLEAR     43  28  56 NW5       29.78R
SILVER BAY     CLEAR     41  27  56 W9        29.75R
GRAND MARAIS     N/A     39  28  64 VRB7G24   29.69S
G MARAIS ARPRT PTCLDY    34  25  69 NW12G21   29.68S WCI  25
$$
MNZ029>031-032-039>041-046>048-054>057-064-300400-
   West Central Minnesota

CITY           SKY/WX    TMP DP  RH WIND       PRES   REMARKS
FERGUS FALLS   MOCLDY    41  28  60 CALM      29.97R
WHEATON        CLEAR     37  27  65 SW7       29.98S
MORRIS         MOCLDY    37  28  70 W6        29.96S
ALEXANDRIA     CLOUDY    40  27  59 W7        29.95S
ELBOW LAKE     MOCLDY    41  28  58 W5        29.95S
WADENA         MOCLDY    36  27  69 SW3       29.92S
GLENWOOD       MOCLDY    39  28  65 SW8       29.96S
APPLETON       CLEAR     39  27  60 W8        29.98S
BENSON         MOCLDY    36  28  75 W8        29.97S
ORTONVILLE     CLEAR     45  27  49 W8        29.98S
MADISON        CLEAR     41  25  52 W7        30.00S
WILLMAR        FAIR      37  28  70 W6        29.99S
$$
MNZ033>034-036-042>043-049>051-058-059-300400-
   Central Minnesota

CITY           SKY/WX    TMP DP  RH WIND       PRES   REMARKS
ST CLOUD       CLEAR     39  23  52 W6        29.94R
SAUK CENTRE    MOCLDY    36  28  72 W3        29.95R
PAYNESVILLE    PTCLDY    33  27  77 S6        29.97R WCI  28
AITKIN         CLEAR     39  27  60 SW3       29.87S
PINE RIVER     CLEAR     39  25  56 CALM      29.93S
BRAINERD       CLEAR     40  22  48 W6        29.91R
STAPLES        PTCLDY    34  25  69 W6        29.92S WCI  29
LONG PRAIRIE   FAIR      39  27  60 W5        29.94S
LITTLE FALLS   PTCLDY    37  23  56 CALM      29.94R
LITCHFIELD     PTCLDY    41  28  60 CALM      29.98R
BUFFALO        CLEAR     41  27  56 CALM      29.96R
MAPLE LAKE     CLEAR     42  28  58 W6        29.97R
$$
MNZ037-044-045-052-053-300400-
   East Central Minnesota

CITY           SKY/WX    TMP DP  RH WIND       PRES   REMARKS
PRINCETON      CLEAR     43  27  52 W7        29.93R
MORA           CLEAR     36  23  60 CALM      29.92R
CAMBRIDGE      CLEAR     45  28  53 W5        29.90R
RUSH CITY      PTCLDY    37  26  65 CALM      29.91R
MOOSE LAKE     CLEAR     39  23  52 CALM      29.85R
HINCKLEY       FAIR      41  28  60 W5        29.89R
CLOQUET        CLEAR     37  21  52 W5        29.84S
MCGREGOR       CLEAR     41  27  56 W6        29.88R
$$
MNZ071>073-080-081-089-090-097-098-300400-
   Southwest Minnesota

CITY           SKY/WX    TMP DP  RH WIND       PRES   REMARKS
MONTEVIDEO     CLEAR     43  27  52 W3        30.00S
GRANITE FALLS  CLEAR     36  24  64 SW7       30.01S
CANBY          CLEAR     43  26  51 W10       30.02S
MARSHALL       CLEAR     41  23  48 W10       30.02S
REDWOOD FALLS  CLEAR     44  26  49 W7        30.00R
OLIVIA         CLEAR     34  28  80 W5        29.99R WCI  30
PIPESTONE      CLEAR     41  21  45 CALM      30.04S
WINDOM         CLEAR     39  25  56 W7        30.03S
WORTHINGTON    CLEAR     37  19  48 W7        30.06R
JACKSON        CLEAR     43  23  45 NW8       30.04S
TRACY          CLEAR     42  26  52 W6        30.02S
SLAYTON        CLEAR     37  21  52 CALM      30.04S
$$
MNZ065>067-074>077-082>085-091>093-300400-
   South Central Minnesota

CITY           SKY/WX    TMP DP  RH WIND       PRES   REMARKS
MANKATO        CLEAR     45  28  53 W9        29.99S
NEW ULM        CLEAR     39  27  60 W7        30.01R
ST JAMES       CLEAR     43  25  49 W8        30.03R
FAIRMONT       CLEAR     43  19  39 W10       30.02R
GLENCOE        CLEAR     42  32  66 W6        29.97R
FARIBAULT      CLEAR     43  30  61 W6        29.98R
OWATONNA       CLEAR     39  28  65 W12       29.98R
WASECA         CLEAR     37  30  75 W7        30.00R
ALBERT LEA     CLEAR     43  32  65 W6        29.99R
$$
MNZ078>079-086>088-094>096-300400-
   Southeast Minnesota

CITY           SKY/WX    TMP DP  RH WIND       PRES   REMARKS
ROCHESTER      CLEAR     39  29  67 NW13      29.95R
RED WING       CLEAR     43  27  52 W5        29.93R
STANTON        CLEAR     42  29  60 W6        29.95R
DODGE CENTER   CLEAR     43  30  61 W13       29.96R
WINONA         CLEAR     46  30  53 NW9       29.93R
AUSTIN         CLEAR     43  30  61 NW9       29.98R
PRESTON        CLEAR     39  29  67 NW15      29.95R
$$
ABBREVIATIONS USED IN REMARKS
   TC - TEMPERATURES IN CELSIUS
  WCI - WIND CHILL INDEX
   HX - HEAT INDEX
  VSB - VISIBILITY
$$


USA.gov is the U.S. government's official web portal to all federal, state and local government web resources and services.